Location: Newark
(48.5156°N, 1.8989°W)
Time: 01:01:50
(UTC+00:00)

Transit 4A - Visible Passes

Search period start: 23 November 2019 00:00
Search period end: 03 December 2019 00:00
Orbit: 869 x 976 km, 66.8° (Epoch: 22 November)

Date Brightness Start Highest point End Pass type
(mag) Time Alt. Az. Time Alt. Az. Time Alt. Az.
23 Nov 9.3 04:12:28 26° N 04:14:14 30° NE 04:19:20 10° E visible
23 Nov 7.8 05:56:00 14° NW 06:01:07 71° WSW 06:06:52 10° SSE visible
24 Nov 10.6 02:38:29 12° NE 02:38:29 12° NE 02:39:11 10° NE visible
24 Nov 8.9 04:22:01 31° N 04:23:49 38° NE 04:29:14 10° ESE visible
24 Nov 8.0 06:05:34 15° NW 06:10:20 50° WSW 06:15:55 10° S visible
25 Nov 10.4 02:48:06 14° NE 02:48:06 14° NE 02:49:29 10° ENE visible
25 Nov 8.4 04:31:39 39° N 04:33:21 51° NE 04:39:00 10° ESE visible
25 Nov 8.5 06:15:12 14° NW 06:19:31 35° WSW 06:24:41 10° S visible
26 Nov 10.2 02:57:48 17° ENE 02:57:48 17° ENE 02:59:44 10° ENE visible
26 Nov 7.9 04:41:21 50° N 04:42:47 69° NE 04:48:34 10° SE visible
26 Nov 8.9 06:24:55 13° WNW 06:28:36 24° WSW 06:33:08 10° SSW visible
27 Nov 10.0 03:07:35 20° ENE 03:07:35 20° ENE 03:09:54 10° E visible
27 Nov 7.6 04:51:09 63° NW 04:52:09 87° SW 04:57:59 10° SSE visible
27 Nov 9.3 06:34:42 12° WNW 06:37:37 16° WSW 06:41:05 10° SW visible
28 Nov 9.9 03:17:27 22° E 03:17:27 22° E 03:19:55 10° ESE visible
28 Nov 7.7 05:01:02 61° W 05:01:27 62° WSW 05:07:09 10° SSE visible
28 Nov 9.6 06:45:40 10° W 06:46:34 10° W 06:47:27 10° WSW visible
28 Nov 9.9 18:22:20 10° SE 18:22:42 11° SE 18:22:42 11° SE visible
28 Nov 10.1 20:05:25 10° SSW 20:06:17 14° SSW 20:06:17 14° SSW visible
29 Nov 9.7 03:27:25 23° E 03:27:25 23° E 03:29:47 10° ESE visible
29 Nov 8.1 05:10:59 43° SW 05:10:59 43° SW 05:16:06 10° S visible
29 Nov 9.4 18:30:18 10° SSE 18:32:48 20° SE 18:32:48 20° SE visible
29 Nov 10.0 20:14:48 10° SW 20:16:23 19° SW 20:16:23 19° SW visible
30 Nov 9.7 03:37:26 22° ESE 03:37:26 22° ESE 03:39:28 10° SE visible
30 Nov 8.8 05:21:01 28° SW 05:21:01 28° SW 05:24:46 10° S visible
30 Nov 8.8 18:38:45 10° S 18:42:50 31° SE 18:42:50 31° SE visible
30 Nov 9.9 20:24:23 10° SW 20:26:24 21° WSW 20:26:24 21° WSW visible
01 Dec 9.8 03:47:31 19° SE 03:47:31 19° SE 03:48:59 10° SE visible
01 Dec 9.4 05:31:06 17° SW 05:31:06 17° SW 05:33:03 10° SSW visible
01 Dec 8.2 18:47:31 10° S 18:52:47 47° SE 18:52:47 47° SE visible
01 Dec 10.0 20:34:09 10° WSW 20:36:21 21° WSW 20:36:21 21° WSW visible
02 Dec 10.1 03:57:39 13° SSE 03:57:39 13° SSE 03:58:18 10° SSE visible
02 Dec 9.6 17:14:46 10° SE 17:17:24 13° ESE 17:19:05 12° E visible
02 Dec 7.8 18:56:33 10° SSW 19:02:38 69° SE 19:02:38 69° SE visible
02 Dec 10.1 20:44:05 10° W 20:46:12 20° W 20:46:12 20° W visible
